Time,TemperatureF,DewpointF,PressureIn,WindDirection,WindDirectionDegrees,WindSpeedMPH,WindSpeedGustMPH,Humidity,HourlyPrecipIn,Conditions,Clouds,dailyrainin,SoftwareType,DateUTC
2013-04-08 00:02:00,46.0,45.0,29.69,ENE,70,6.0,-999.0,93,-99.99,,,-99.99,,2013-04-08 05:02:00,
2013-04-08 00:12:00,46.0,45.0,29.69,East,80,6.0,-999.0,93,-99.99,,,-99.99,,2013-04-08 05:12:00,
2013-04-08 00:22:00,46.0,45.0,29.69,East,80,6.0,-999.0,93,-99.99,,,-99.99,,2013-04-08 05:22:00,
2013-04-08 00:32:00,46.0,45.0,29.69,East,80,6.0,-999.0,93,-99.99,,,-99.99,,2013-04-08 05:32:00,
2013-04-08 00:42:00,46.0,45.0,29.69,ENE,70,6.0,-999.0,93,-99.99,,,-99.99,,2013-04-08 05:42:00,
2013-04-08 00:52:00,46.0,45.0,29.68,East,90,6.0,-999.0,93,-99.99,,,-99.99,,2013-04-08 05:52:00,
2013-04-08 01:02:00,46.0,45.0,29.68,East,90,6.0,-999.0,93,-99.99,,,-99.99,,2013-04-08 06:02:00,
2013-04-08 01:12:00,45.0,45.0,29.68,North,0,0.0,-999.0,100,-99.99,,,-99.99,,2013-04-08 06:12:00,
2013-04-08 01:22:00,45.0,45.0,29.68,North,0,0.0,-999.0,100,-99.99,,,-99.99,,2013-04-08 06:22:00,
2013-04-08 01:32:00,45.0,43.0,29.68,North,0,0.0,-999.0,93,-99.99,,,-99.99,,2013-04-08 06:32:00,
2013-04-08 01:42:00,45.0,43.0,29.68,North,0,0.0,-999.0,93,-99.99,,,-99.99,,2013-04-08 06:42:00,
2013-04-08 01:52:00,45.0,43.0,29.68,North,0,0.0,-999.0,93,-99.99,,,-99.99,,2013-04-08 06:52:00,
2013-04-08 02:02:00,45.0,43.0,29.68,North,0,0.0,-999.0,93,-99.99,,,-99.99,,2013-04-08 07:02:00,
2013-04-08 02:12:00,45.0,43.0,29.68,North,0,0.0,-999.0,93,-99.99,,,-99.99,,2013-04-08 07:12:00,
2013-04-08 02:22:00,45.0,43.0,29.68,North,0,0.0,-999.0,93,-99.99,,,-99.99,,2013-04-08 07:22:00,
2013-04-08 02:33:00,45.0,43.0,29.68,North,0,0.0,-999.0,93,-99.99,,,-99.99,,2013-04-08 07:33:00,
2013-04-08 03:02:00,43.0,41.0,29.68,North,0,0.0,-999.0,93,-99.99,,,-99.99,,2013-04-08 08:02:00,
2013-04-08 03:12:00,43.0,41.0,29.68,North,0,0.0,-999.0,93,-99.99,,,-99.99,,2013-04-08 08:12:00,
2013-04-08 03:22:00,43.0,41.0,29.68,North,0,0.0,-999.0,93,-99.99,,,-99.99,,2013-04-08 08:22:00,
2013-04-08 03:32:00,43.0,41.0,29.68,North,0,0.0,-999.0,93,-99.99,,,-99.99,,2013-04-08 08:32:00,
2013-04-08 03:43:00,41.0,39.0,29.68,North,0,0.0,-999.0,93,-99.99,,,-99.99,,2013-04-08 08:43:00,
2013-04-08 03:52:00,39.0,37.0,29.67,North,0,0.0,-999.0,93,-99.99,,,-99.99,,2013-04-08 08:52:00,
2013-04-08 04:02:00,39.0,37.0,29.67,North,0,0.0,-999.0,93,-99.99,,,-99.99,,2013-04-08 09:02:00,
2013-04-08 04:12:00,39.0,37.0,29.67,North,0,0.0,-999.0,93,-99.99,,,-99.99,,2013-04-08 09:12:00,
2013-04-08 04:22:00,39.0,37.0,29.67,North,0,0.0,-999.0,93,-99.99,,,-99.99,,2013-04-08 09:22:00,
2013-04-08 04:33:00,36.0,36.0,29.67,North,0,0.0,-999.0,100,-99.99,,,-99.99,,2013-04-08 09:33:00,
2013-04-08 04:43:00,36.0,36.0,29.67,North,0,0.0,-999.0,100,-99.99,,,-99.99,,2013-04-08 09:43:00,
2013-04-08 04:53:00,36.0,34.0,29.67,North,0,0.0,-999.0,93,-99.99,,,-99.99,,2013-04-08 09:53:00,
2013-04-08 05:03:00,36.0,34.0,29.67,North,0,0.0,-999.0,93,-99.99,,,-99.99,,2013-04-08 10:03:00,
2013-04-08 05:13:00,36.0,36.0,29.67,North,0,0.0,-999.0,100,-99.99,,,-99.99,,2013-04-08 10:13:00,
2013-04-08 05:23:00,36.0,36.0,29.67,North,0,0.0,-999.0,100,-99.99,,,-99.99,,2013-04-08 10:23:00,
2013-04-08 05:33:00,36.0,36.0,29.67,North,0,0.0,-999.0,100,-99.99,,,-99.99,,2013-04-08 10:33:00,
2013-04-08 05:42:00,36.0,36.0,29.67,North,0,0.0,-999.0,100,-99.99,,,-99.99,,2013-04-08 10:42:00,
2013-04-08 05:52:00,36.0,36.0,29.67,North,0,0.0,-999.0,100,-99.99,,,-99.99,,2013-04-08 10:52:00,
2013-04-08 06:02:00,36.0,36.0,29.67,North,0,0.0,-999.0,100,-99.99,,,-99.99,,2013-04-08 11:02:00,
2013-04-08 06:12:00,37.0,37.0,29.67,North,0,0.0,-999.0,100,-99.99,,,-99.99,,2013-04-08 11:12:00,
2013-04-08 06:22:00,37.0,37.0,29.67,North,0,0.0,-999.0,100,-99.99,,,-99.99,,2013-04-08 11:22:00,
2013-04-08 06:32:00,37.0,37.0,29.67,North,350,5.0,-999.0,100,-99.99,,,-99.99,,2013-04-08 11:32:00,
2013-04-08 06:42:00,37.0,37.0,29.67,North,350,5.0,-999.0,100,-99.99,,,-99.99,,2013-04-08 11:42:00,
2013-04-08 06:52:00,37.0,37.0,29.67,North,350,5.0,-999.0,100,-99.99,,,-99.99,,2013-04-08 11:52:00,
2013-04-08 07:03:00,37.0,37.0,29.67,North,350,5.0,-999.0,100,-99.99,,,-99.99,,2013-04-08 12:03:00,
2013-04-08 07:12:00,37.0,37.0,29.67,North,0,0.0,-999.0,100,-99.99,,,-99.99,,2013-04-08 12:12:00,
2013-04-08 07:23:00,37.0,37.0,29.67,North,0,0.0,-999.0,100,-99.99,,,-99.99,,2013-04-08 12:23:00,
2013-04-08 07:33:00,37.0,37.0,29.67,North,0,0.0,-999.0,100,-99.99,,,-99.99,,2013-04-08 12:33:00,
2013-04-08 07:42:00,37.0,37.0,29.67,North,0,0.0,-999.0,100,-99.99,,,-99.99,,2013-04-08 12:42:00,
2013-04-08 07:52:00,37.0,37.0,29.68,North,0,0.0,-999.0,100,-99.99,,,-99.99,,2013-04-08 12:52:00,
2013-04-08 08:03:00,37.0,37.0,29.68,North,0,0.0,-999.0,100,-99.99,,,-99.99,,2013-04-08 13:03:00,
2013-04-08 08:12:00,37.0,37.0,29.68,North,0,0.0,-999.0,100,-99.99,,,-99.99,,2013-04-08 13:12:00,
2013-04-08 08:22:00,37.0,37.0,29.68,North,0,0.0,-999.0,100,-99.99,,,-99.99,,2013-04-08 13:22:00,
2013-04-08 08:32:00,39.0,39.0,29.70,North,0,0.0,-999.0,100,-99.99,,,-99.99,,2013-04-08 13:32:00,
2013-04-08 08:43:00,39.0,39.0,29.70,North,0,0.0,-999.0,100,-99.99,,,-99.99,,2013-04-08 13:43:00,
2013-04-08 08:52:00,41.0,41.0,29.70,NE,40,8.0,-999.0,100,-99.99,,,-99.99,,2013-04-08 13:52:00,
2013-04-08 09:02:00,41.0,41.0,29.70,NE,40,8.0,-999.0,100,-99.99,,,-99.99,,2013-04-08 14:02:00,
2013-04-08 09:12:00,41.0,41.0,29.70,NE,40,8.0,-999.0,100,-99.99,,,-99.99,,2013-04-08 14:12:00,
2013-04-08 09:22:00,41.0,41.0,29.70,NE,40,8.0,-999.0,100,-99.99,,,-99.99,,2013-04-08 14:22:00,
2013-04-08 09:32:00,43.0,43.0,29.72,East,80,8.0,-999.0,100,-99.99,,,-99.99,,2013-04-08 14:32:00,
2013-04-08 09:43:00,43.0,43.0,29.72,East,80,8.0,-999.0,100,-99.99,,,-99.99,,2013-04-08 14:43:00,
2013-04-08 09:52:00,43.0,43.0,29.74,ENE,60,9.0,-999.0,100,-99.99,,,-99.99,,2013-04-08 14:52:00,
2013-04-08 10:02:00,43.0,43.0,29.74,ENE,60,9.0,-999.0,100,-99.99,,,-99.99,,2013-04-08 15:02:00,
2013-04-08 10:12:00,43.0,43.0,29.74,NE,50,12.0,18.0,100,-99.99,,,-99.99,,2013-04-08 15:12:00,
2013-04-08 10:22:00,43.0,43.0,29.74,NE,50,12.0,18.0,100,-99.99,,,-99.99,,2013-04-08 15:22:00,
2013-04-08 10:33:00,45.0,45.0,29.74,ENE,70,12.0,-999.0,100,-99.99,,,-99.99,,2013-04-08 15:33:00,
2013-04-08 10:43:00,45.0,45.0,29.74,ENE,70,12.0,-999.0,100,-99.99,,,-99.99,,2013-04-08 15:43:00,
2013-04-08 10:52:00,45.0,45.0,29.74,ENE,70,12.0,16.0,100,-99.99,,,-99.99,,2013-04-08 15:52:00,
2013-04-08 11:03:00,45.0,45.0,29.74,ENE,70,12.0,16.0,100,-99.99,,,-99.99,,2013-04-08 16:03:00,
2013-04-08 11:13:00,45.0,45.0,29.74,ENE,70,12.0,16.0,100,-99.99,,,-99.99,,2013-04-08 16:13:00,
2013-04-08 11:23:00,45.0,45.0,29.74,ENE,70,12.0,16.0,100,-99.99,,,-99.99,,2013-04-08 16:23:00,
2013-04-08 11:32:00,45.0,45.0,29.74,ENE,70,12.0,16.0,100,-99.99,,,-99.99,,2013-04-08 16:32:00,
2013-04-08 11:42:00,46.0,45.0,29.75,East,80,15.0,-999.0,93,-99.99,,,-99.99,,2013-04-08 16:42:00,
2013-04-08 11:53:00,46.0,46.0,29.75,ENE,70,15.0,-999.0,100,-99.99,,,-99.99,,2013-04-08 16:53:00,
2013-04-08 12:03:00,46.0,46.0,29.75,ENE,70,15.0,-999.0,100,-99.99,,,-99.99,,2013-04-08 17:03:00,
2013-04-08 12:12:00,46.0,46.0,29.75,ENE,70,15.0,21.0,100,-99.99,,,-99.99,,2013-04-08 17:12:00,
2013-04-08 12:22:00,46.0,46.0,29.75,ENE,70,15.0,21.0,100,-99.99,,,-99.99,,2013-04-08 17:22:00,
2013-04-08 12:32:00,48.0,46.0,29.76,East,90,12.0,16.0,93,-99.99,,,-99.99,,2013-04-08 17:32:00,
2013-04-08 12:43:00,48.0,46.0,29.76,East,90,12.0,16.0,93,-99.99,,,-99.99,,2013-04-08 17:43:00,
2013-04-08 12:52:00,48.0,46.0,29.76,East,80,14.0,18.0,93,-99.99,,,-99.99,,2013-04-08 17:52:00,
2013-04-08 13:02:00,48.0,46.0,29.76,East,80,14.0,18.0,93,-99.99,,,-99.99,,2013-04-08 18:02:00,
2013-04-08 13:12:00,48.0,46.0,29.76,East,80,14.0,18.0,93,-99.99,,,-99.99,,2013-04-08 18:12:00,
2013-04-08 13:23:00,48.0,46.0,29.76,East,80,14.0,18.0,93,-99.99,,,-99.99,,2013-04-08 18:23:00,
2013-04-08 13:32:00,50.0,46.0,29.77,ENE,70,14.0,-999.0,87,-99.99,,,-99.99,,2013-04-08 18:32:00,
2013-04-08 13:42:00,50.0,46.0,29.77,ENE,70,14.0,-999.0,87,-99.99,,,-99.99,,2013-04-08 18:42:00,
2013-04-08 13:52:00,52.0,48.0,29.77,ENE,70,13.0,17.0,87,-99.99,,,-99.99,,2013-04-08 18:52:00,
2013-04-08 14:02:00,52.0,48.0,29.77,ENE,70,13.0,17.0,87,-99.99,,,-99.99,,2013-04-08 19:02:00,
2013-04-08 14:12:00,52.0,48.0,29.77,ENE,70,13.0,17.0,87,-99.99,,,-99.99,,2013-04-08 19:12:00,
2013-04-08 14:23:00,52.0,48.0,29.77,ENE,70,13.0,17.0,87,-99.99,,,-99.99,,2013-04-08 19:23:00,
2013-04-08 14:33:00,54.0,50.0,29.77,ENE,70,14.0,20.0,87,-99.99,,,-99.99,,2013-04-08 19:33:00,
2013-04-08 14:43:00,54.0,50.0,29.77,ENE,70,14.0,20.0,87,-99.99,,,-99.99,,2013-04-08 19:43:00,
2013-04-08 14:52:00,54.0,50.0,29.78,East,80,13.0,17.0,87,-99.99,,,-99.99,,2013-04-08 19:52:00,
2013-04-08 15:02:00,54.0,50.0,29.78,East,80,13.0,17.0,87,-99.99,,,-99.99,,2013-04-08 20:02:00,
2013-04-08 15:12:00,54.0,50.0,29.78,East,80,13.0,17.0,87,-99.99,,,-99.99,,2013-04-08 20:12:00,
2013-04-08 15:22:00,54.0,50.0,29.78,East,80,13.0,17.0,87,-99.99,,,-99.99,,2013-04-08 20:22:00,
2013-04-08 15:33:00,55.0,50.0,29.78,NE,50,15.0,21.0,81,-99.99,,,-99.99,,2013-04-08 20:33:00,
2013-04-08 15:43:00,55.0,50.0,29.78,NE,50,15.0,21.0,81,-99.99,,,-99.99,,2013-04-08 20:43:00,
2013-04-08 15:52:00,57.0,52.0,29.77,NE,40,13.0,18.0,82,-99.99,,,-99.99,,2013-04-08 20:52:00,
2013-04-08 16:02:00,57.0,52.0,29.77,NE,40,13.0,18.0,82,-99.99,,,-99.99,,2013-04-08 21:02:00,
2013-04-08 16:12:00,57.0,52.0,29.77,NE,40,13.0,18.0,82,-99.99,,,-99.99,,2013-04-08 21:12:00,
2013-04-08 16:22:00,57.0,52.0,29.77,NE,40,13.0,18.0,82,-99.99,,,-99.99,,2013-04-08 21:22:00,
2013-04-08 16:32:00,59.0,52.0,29.77,NE,40,17.0,24.0,76,-99.99,,,-99.99,,2013-04-08 21:32:00,
2013-04-08 16:43:00,59.0,52.0,29.77,NE,40,17.0,24.0,76,-99.99,,,-99.99,,2013-04-08 21:43:00,
2013-04-08 16:53:00,59.0,52.0,29.78,NE,40,15.0,24.0,76,-99.99,,,-99.99,,2013-04-08 21:53:00,
2013-04-08 17:03:00,59.0,52.0,29.78,NE,40,15.0,24.0,76,-99.99,,,-99.99,,2013-04-08 22:03:00,
2013-04-08 17:23:00,59.0,52.0,29.78,NE,40,15.0,24.0,76,-99.99,,,-99.99,,2013-04-08 22:23:00,
2013-04-08 17:32:00,55.0,50.0,29.80,NNE,30,17.0,27.0,81,-99.99,,,-99.99,,2013-04-08 22:32:00,
2013-04-08 17:43:00,55.0,50.0,29.80,NNE,30,17.0,27.0,81,-99.99,,,-99.99,,2013-04-08 22:43:00,
2013-04-08 17:53:00,55.0,50.0,29.80,NNE,30,17.0,27.0,81,-99.99,,,-99.99,,2013-04-08 22:53:00,
2013-04-08 18:02:00,54.0,48.0,29.80,NNE,30,20.0,29.0,81,-99.99,,,-99.99,,2013-04-08 23:02:00,
2013-04-08 18:12:00,52.0,46.0,29.81,NNE,20,18.0,25.0,81,-99.99,,,-99.99,,2013-04-08 23:12:00,
2013-04-08 18:22:00,52.0,46.0,29.81,NNE,20,18.0,25.0,81,-99.99,,,-99.99,,2013-04-08 23:22:00,
2013-04-08 18:32:00,48.0,45.0,29.82,NNE,20,20.0,27.0,87,-99.99,,,-99.99,,2013-04-08 23:32:00,
2013-04-08 18:42:00,48.0,45.0,29.82,NNE,20,20.0,27.0,87,-99.99,,,-99.99,,2013-04-08 23:42:00,
2013-04-08 18:52:00,46.0,45.0,29.83,NNE,20,18.0,28.0,93,-99.99,,,-99.99,,2013-04-08 23:52:00,
2013-04-08 19:02:00,46.0,45.0,29.83,NNE,20,18.0,28.0,93,-99.99,,,-99.99,,2013-04-09 00:02:00,
2013-04-08 19:12:00,46.0,45.0,29.83,NNE,20,18.0,28.0,93,-99.99,,,-99.99,,2013-04-09 00:12:00,
2013-04-08 19:22:00,46.0,45.0,29.83,NNE,20,18.0,28.0,93,-99.99,,,-99.99,,2013-04-09 00:22:00,
2013-04-08 19:32:00,45.0,43.0,29.84,NNE,20,23.0,30.0,93,-99.99,,,-99.99,,2013-04-09 00:32:00,
2013-04-08 19:42:00,45.0,43.0,29.84,NNE,20,23.0,30.0,93,-99.99,,,-99.99,,2013-04-09 00:42:00,
2013-04-08 19:52:00,45.0,43.0,29.85,NNE,20,23.0,33.0,93,-99.99,,,-99.99,,2013-04-09 00:52:00,
2013-04-08 20:02:00,45.0,43.0,29.85,NNE,20,23.0,33.0,93,-99.99,,,-99.99,,2013-04-09 01:02:00,
2013-04-08 20:12:00,45.0,43.0,29.86,NNE,20,22.0,30.0,93,-99.99,,,-99.99,,2013-04-09 01:12:00,
2013-04-08 20:22:00,45.0,43.0,29.86,NNE,20,22.0,30.0,93,-99.99,,,-99.99,,2013-04-09 01:22:00,
2013-04-08 20:33:00,45.0,43.0,29.87,NNE,20,18.0,31.0,93,-99.99,,,-99.99,,2013-04-09 01:33:00,
2013-04-08 20:42:00,45.0,43.0,29.87,NNE,20,18.0,31.0,93,-99.99,,,-99.99,,2013-04-09 01:42:00,
2013-04-08 20:52:00,43.0,41.0,29.88,NNE,20,16.0,27.0,93,-99.99,,,-99.99,,2013-04-09 01:52:00,
2013-04-08 21:02:00,43.0,41.0,29.88,NNE,20,16.0,27.0,93,-99.99,,,-99.99,,2013-04-09 02:02:00,
2013-04-08 21:12:00,43.0,41.0,29.88,NNE,20,16.0,27.0,93,-99.99,,,-99.99,,2013-04-09 02:12:00,
2013-04-08 21:22:00,43.0,41.0,29.88,NNE,20,16.0,27.0,93,-99.99,,,-99.99,,2013-04-09 02:22:00,
2013-04-08 21:32:00,43.0,39.0,29.90,NNE,30,24.0,31.0,86,-99.99,,,-99.99,,2013-04-09 02:32:00,
2013-04-08 21:44:00,43.0,39.0,29.90,NNE,30,24.0,31.0,86,-99.99,,,-99.99,,2013-04-09 02:44:00,
2013-04-08 21:52:00,43.0,41.0,29.91,NNE,30,25.0,32.0,93,-99.99,,,-99.99,,2013-04-09 02:52:00,
2013-04-08 22:02:00,43.0,41.0,29.91,NNE,30,25.0,32.0,93,-99.99,,,-99.99,,2013-04-09 03:02:00,
2013-04-08 22:12:00,43.0,41.0,29.91,NNE,30,25.0,32.0,93,-99.99,,,-99.99,,2013-04-09 03:12:00,
2013-04-08 22:21:00,43.0,41.0,29.91,NNE,30,25.0,32.0,93,-99.99,,,-99.99,,2013-04-09 03:21:00,
2013-04-08 22:33:00,39.0,39.0,29.94,NNE,30,21.0,27.0,100,-99.99,,,-99.99,,2013-04-09 03:33:00,
2013-04-08 22:43:00,39.0,39.0,29.94,NNE,30,21.0,27.0,100,-99.99,,,-99.99,,2013-04-09 03:43:00,
2013-04-08 22:53:00,39.0,37.0,29.94,NE,40,18.0,29.0,93,-99.99,,,-99.99,,2013-04-09 03:53:00,
2013-04-08 23:03:00,39.0,37.0,29.94,NE,40,18.0,29.0,93,-99.99,,,-99.99,,2013-04-09 04:03:00,
2013-04-08 23:13:00,41.0,39.0,29.94,NE,40,21.0,27.0,93,-99.99,,,-99.99,,2013-04-09 04:13:00,
2013-04-08 23:23:00,41.0,39.0,29.94,NE,40,21.0,27.0,93,-99.99,,,-99.99,,2013-04-09 04:23:00,
2013-04-08 23:32:00,41.0,39.0,29.93,NE,40,25.0,35.0,93,-99.99,,,-99.99,,2013-04-09 04:32:00,
2013-04-08 23:42:00,41.0,39.0,29.93,NE,40,25.0,35.0,93,-99.99,,,-99.99,,2013-04-09 04:42:00,
2013-04-08 23:52:00,41.0,39.0,29.93,NE,40,25.0,35.0,93,-99.99,,,-99.99,,2013-04-09 04:52:00,